Weather History for Prestwick, United Kingdom

Change the Weather History Date:

Monday, October 8, 2012

  Actual Average Record
Temperature  
Mean Temperature 44 °F -  
Max Temperature 53 °F 52 °F 68 °F (2010)
Min Temperature 35 °F 42 °F 33 °F (1998)
Degree Days  
Heating Degree Days 21    
Moisture  
Dew Point 40 °F    
Average Humidity 79    
Maximum Humidity 93    
Minimum Humidity 67    
Precipitation  
Precipitation 0.00 in - - ()
Sea Level Pressure  
Sea Level Pressure 30.05 in    
Wind  
Wind Speed 2 mph ()    
Max Wind Speed 9 mph    
Max Gust Speed -    
Visibility 6.2 miles    
Events      
Averages and records for this station are not official NWS values.
T = Trace of Precipitation, MM = Missing Value Source: Averaged Metar Reports

Daily Weather History Graph

Daily Weather History Graph

Search for Another Location

Airport:

Trip Planner

Search our weather history database for the weather conditions in past years. The results will help you decide how hot, cold, wet, or windy it might be!

Date:

Astronomy

Oct. 08, 2012 Rise Set
Actual Time 7:35 AM BST 6:35 PM BST
Civil Twilight 6:58 AM BST 7:11 PM BST
Nautical Twilight 6:16 AM BST 7:54 PM BST
Astronomical Twilight 5:32 AM BST 8:37 PM BST
Moon 11:57 PM BST (10/8) 3:20 PM BST (10/8)
Length of Visible Light 12h 13m
Length of Day
10h 59m
Waning Gibbous, 48% of the Moon is Illuminated
Oct 8
Waning Gibbous
Oct 15
New
Oct 22
First Quarter
Oct 29
Full
Nov 7
Last Quarter

Hourly Weather History & Observations

Time (BST) Temp. Windchill Dew Point Humidity Pressure Visibility Wind Dir Wind Speed Gust Speed Precip Events Conditions
12:20 AM 39.2 °F 37.0 °F 35.6 °F 87% 30.15 in - ESE 3.5 mph - N/A   Clear
12:50 AM 39.2 °F - 35.6 °F 87% 30.15 in - East 2.3 mph - N/A   Clear
1:50 AM 37.4 °F 34.9 °F 35.6 °F 93% 30.12 in - SE 3.5 mph - N/A   Clear
2:50 AM 37.4 °F - 35.6 °F 93% 30.12 in - Calm Calm - N/A   Clear
3:50 AM 37.4 °F - 33.8 °F 87% 30.09 in - ESE 2.3 mph - N/A   Clear
4:50 AM 37.4 °F - 33.8 °F 87% 30.09 in - East 2.3 mph - N/A   Clear
5:50 AM 37.4 °F - 35.6 °F 93% 30.06 in - Calm Calm - N/A   Clear
6:20 AM 37.4 °F - 33.8 °F 87% 30.06 in 6.2 mi Calm Calm - N/A   Partly Cloudy
6:50 AM 37.4 °F - 33.8 °F 87% 30.06 in 6.2 mi Calm Calm - N/A   Partly Cloudy
7:20 AM 37.4 °F - 33.8 °F 87% 30.06 in 6.2 mi Calm Calm - N/A   Partly Cloudy
7:50 AM 35.6 °F - 33.8 °F 93% 30.06 in 6.2 mi South 2.3 mph - N/A   Partly Cloudy
8:20 AM 37.4 °F - 33.8 °F 87% 30.06 in 6.2 mi Calm Calm - N/A   Partly Cloudy
8:50 AM 37.4 °F - 35.6 °F 93% 30.06 in 6.2 mi Calm Calm - N/A   Partly Cloudy
9:20 AM 41.0 °F - 37.4 °F 87% 30.09 in 6.2 mi Calm Calm - N/A   Partly Cloudy
9:50 AM 42.8 °F - 39.2 °F 87% 30.09 in 6.2 mi Variable 2.3 mph - N/A   Partly Cloudy
10:20 AM 46.4 °F - 41.0 °F 81% 30.06 in 6.2 mi Calm Calm - N/A   Partly Cloudy
10:50 AM 48.2 °F - 42.8 °F 82% 30.06 in 6.2 mi Calm Calm - N/A   Partly Cloudy
11:20 AM 50.0 °F - 42.8 °F 76% 30.06 in - Calm Calm - N/A   Clear
11:50 AM 50.0 °F - 41.0 °F 71% 30.06 in - Calm Calm - N/A   Clear
12:20 PM 51.8 °F - 42.8 °F 71% 30.06 in - North 2.3 mph - N/A   Clear
12:50 PM 53.6 °F - 42.8 °F 67% 30.04 in - West 4.6 mph - N/A   Clear
1:20 PM 53.6 °F - 42.8 °F 67% 30.04 in - West 4.6 mph - N/A   Clear
1:50 PM 53.6 °F - 42.8 °F 67% 30.04 in - West 4.6 mph - N/A   Clear
2:20 PM 53.6 °F - 42.8 °F 67% 30.04 in - West 9.2 mph - N/A   Clear
2:50 PM 53.6 °F - 42.8 °F 67% 30.01 in 6.2 mi WNW 8.1 mph - N/A   Partly Cloudy
3:20 PM 53.6 °F - 42.8 °F 67% 30.01 in 6.2 mi West 8.1 mph - N/A   Partly Cloudy
3:50 PM 53.6 °F - 44.6 °F 72% 30.01 in 6.2 mi West 4.6 mph - N/A   Scattered Clouds
4:20 PM 53.6 °F - 44.6 °F 72% 30.01 in 6.2 mi WNW 3.5 mph - N/A   Mostly Cloudy
4:50 PM 53.6 °F - 42.8 °F 67% 30.01 in 6.2 mi NNE 4.6 mph - N/A   Mostly Cloudy
5:20 PM 53.6 °F - 42.8 °F 67% 30.01 in 6.2 mi North 5.8 mph - N/A   Mostly Cloudy
5:50 PM 51.8 °F - 42.8 °F 71% 30.01 in 6.2 mi North 3.5 mph - N/A   Mostly Cloudy
6:20 PM 51.8 °F - 42.8 °F 71% 30.01 in 6.2 mi Calm Calm - N/A   Mostly Cloudy
6:50 PM 50.0 °F - 42.8 °F 76% 30.01 in 6.2 mi North 2.3 mph - N/A   Mostly Cloudy
7:20 PM 50.0 °F - 41.0 °F 71% 30.04 in 6.2 mi NNE 2.3 mph - N/A   Mostly Cloudy
7:50 PM 50.0 °F - 41.0 °F 71% 30.04 in 6.2 mi North 2.3 mph - N/A   Mostly Cloudy
8:20 PM 46.4 °F 45.2 °F 39.2 °F 76% 30.04 in 6.2 mi North 3.5 mph - N/A   Mostly Cloudy
8:50 PM 44.6 °F - 39.2 °F 81% 30.04 in 6.2 mi North 2.3 mph - N/A   Mostly Cloudy
9:20 PM 44.6 °F - 39.2 °F 81% 30.04 in 6.2 mi Calm Calm - N/A   Mostly Cloudy
9:50 PM 44.6 °F - 41.0 °F 87% 30.04 in 6.2 mi Calm Calm - N/A   Mostly Cloudy
10:20 PM 44.6 °F 42.2 °F 41.0 °F 87% 30.04 in 6.2 mi ESE 4.6 mph - N/A   Mostly Cloudy
10:50 PM 44.6 °F 42.2 °F 41.0 °F 87% 30.04 in 6.2 mi ENE 4.6 mph - N/A   Mostly Cloudy
11:20 PM 48.2 °F - 41.0 °F 76% 30.06 in 6.2 mi NE 5.8 mph - N/A   Mostly Cloudy
11:50 PM 48.2 °F - 39.2 °F 71% 30.06 in 6.2 mi NE 5.8 mph - N/A   Mostly Cloudy